This demonstration page uses our WeatherBlox Daily Observations layout. Learn more.

Left ArrowRight Arrow

38.88101, -77.10428

Hourly Observations for November 25, 2018

Temp ( °F °C ) Dew Point ( °F °C ) Humidity (%) Winds ( mph kmh ) Pressure ( in mb ) Visibility ( mi km ) Precip ( " mm )
12:52 am 00:52 Mostly Clear 41 5 37 2.8 86 86 W 3 6 29.8 1009 10 16.0934 0 0
1:52 am 01:52 Mostly Clear 41 5 36 2.2 82 82 WNW 7 11 29.83 1010 10 16.0934 0 0
2:52 am 02:52 Mostly Clear 39 3.9 35 1.7 86 86 Calm 29.83 1010 10 16.0934 0 0
3:52 am 03:52 Partly Cloudy 39 3.9 36 2.2 89 89 Calm 29.83 1010 10 16.0934 0 0
4:52 am 04:52 Cloudy 40 4.4 36 2.2 86 86 NW 6 9 29.84 1010 10 16.0934 0 0
5:52 am 05:52 Cloudy 40 4.4 37 2.8 89 89 SSW 7 11 29.87 1012 10 16.0934 0 0
6:52 am 06:52 Mostly Cloudy 40 4.4 36 2.2 86 86 SSW 6 9 29.9 1012 10 16.0934 0 0
7:52 am 07:52 Mostly Cloudy 42 5.6 38 3.3 85 85 SSW 5 7 29.91 1013 10 16.0934 0 0
8:52 am 08:52 Mostly Cloudy 43 6.1 40 4.4 89 89 S 10 17 29.93 1014 10 16.0934 0 0
9:52 am 09:52 Mostly Cloudy 46 7.8 41 5 83 83 S 8 13 29.94 1014 10 16.0934 0 0
10:52 am 10:52 Partly Cloudy 49 9.4 42 5.6 77 77 S 12 19 29.94 1014 10 16.0934 0 0
11:52 am 11:52 Partly Cloudy 53 11.7 43 6.1 69 69 S 9 15 29.93 1014 10 16.0934 0 0
12:52 pm 12:52 Partly Cloudy 57 13.9 44 6.7 62 62 S 8 13 29.92 1013 10 16.0934 0 0
1:52 pm 13:52 Partly Cloudy 58 14.4 43 6.1 58 58 S 12 19 29.91 1013 10 16.0934 0 0
2:52 pm 14:52 Partly Cloudy 58 14.4 42 5.6 56 56 S 10 17 29.91 1013 10 16.0934 0 0
3:52 pm 15:52 Partly Cloudy 56 13.3 43 6.1 62 62 S 9 15 29.91 1013 10 16.0934 0 0
4:52 pm 16:52 Partly Cloudy 55 12.8 41 5 59 59 S 7 11 29.93 1013 10 16.0934 0 0
5:52 pm 17:52 Partly Cloudy 55 12.8 42 5.6 62 62 S 3 6 29.93 1014 10 16.0934 0 0
6:52 pm 18:52 Mostly Clear 50 10 42 5.6 74 74 SSW 5 7 29.93 1014 10 16.0934 0 0
7:52 pm 19:52 Mostly Clear 50 10 42 5.6 74 74 SSW 6 9 29.93 1014 10 16.0934 0 0
8:52 pm 20:52 Mostly Cloudy 45 7.2 41 5 86 86 Calm 29.92 1013 10 16.0934 0 0
9:52 pm 21:52 Clear 49 9.4 43 6.1 80 80 Calm 29.91 1013 10 16.0934 0 0
10:52 pm 22:52 Cloudy 47 8.3 42 5.6 83 83 Calm 29.91 1013 10 16.0934 0 0
11:52 pm 23:52 Cloudy 46 7.8 42 5.6 86 86 S 3 6 29.92 1013 10 16.0934 0 0

Powered by AerisWeather